| time (UTC) | temp F | wind direction | speed knots | gust knots | rain 1hr in | rain 24hr in | rain mn in | humidity % | barometer mb |
| 20260507044517 | 48 | 198 | 1.7 | 2.6 | 0.00 | 1.19 | 0.17 | 95 | 1014.6 |
| 20260507043024 | 49 | 335 | 0.0 | 1.7 | 0.00 | 1.20 | 0.17 | 95 | 1014.4 |
| 20260507041523 | 49 | 349 | 0.0 | 0.0 | 0.00 | 1.23 | 0.17 | 94 | 1014.3 |
| 20260507040026 | 49 | 283 | 0.0 | 0.9 | 0.00 | 1.28 | 0.17 | 95 | 1014.1 |
| 20260507034514 | 49 | 176 | 0.9 | 2.6 | 0.00 | 1.47 | 0.17 | 94 | 1014.0 |
| 20260507033023 | 49 | 195 | 0.0 | 0.0 | 0.00 | 1.54 | 0.17 | 94 | 1013.9 |
| 20260507031521 | 49 | 195 | 0.0 | 1.7 | 0.00 | 1.56 | 0.17 | 94 | 1013.9 |
| 20260507030008 | 50 | 14 | 0.0 | 0.0 | 0.00 | 1.56 | 0.17 | 94 | 1013.8 |
| 20260507024512 | 50 | 20 | 0.0 | 0.9 | 0.00 | 1.63 | 0.17 | 93 | 1013.9 |
| 20260507023014 | 50 | 202 | 0.0 | 1.7 | 0.00 | 1.77 | 0.17 | 93 | 1013.8 |
| 20260507021520 | 51 | 167 | 0.9 | 1.7 | 0.00 | 1.81 | 0.17 | 93 | 1014.0 |
| 20260507020029 | 52 | 139 | 0.0 | 0.0 | 0.00 | 1.83 | 0.17 | 92 | 1013.8 |
| 20260507014510 | 52 | 160 | 0.0 | 0.9 | 0.00 | 1.83 | 0.17 | 92 | 1013.7 |
| 20260507013030 | 53 | 200 | 0.9 | 4.3 | 0.00 | 1.83 | 0.17 | 91 | 1013.7 |
| 20260507011518 | 53 | 61 | 4.3 | 5.2 | 0.01 | 1.83 | 0.17 | 92 | 1013.7 |
| 20260507010026 | 53 | 46 | 2.6 | 3.5 | 0.04 | 1.83 | 0.17 | 92 | 1013.7 |
| 20260507004524 | 52 | 66 | 0.9 | 1.7 | 0.05 | 1.83 | 0.17 | 92 | 1013.9 |
| 20260507003008 | 53 | 59 | 0.9 | 5.2 | 0.07 | 1.83 | 0.17 | 92 | 1013.8 |
| 20260507001512 | 53 | 72 | 1.7 | 4.3 | 0.09 | 1.82 | 0.16 | 92 | 1014.0 |
| 20260507000018 | 53 | 30 | 0.0 | 3.5 | 0.12 | 1.79 | 0.13 | 92 | 1014.1 |
| 20260506234522 | 53 | 55 | 2.6 | 2.6 | 0.11 | 1.78 | 0.12 | 92 | 1013.9 |
| 20260506233027 | 53 | 73 | 1.7 | 3.5 | 0.09 | 1.82 | 0.10 | 92 | 1014.2 |
| 20260506231512 | 53 | 55 | 0.9 | 2.6 | 0.06 | 2.13 | 0.07 | 91 | 1014.3 |
| 20260506230016 | 53 | 8 | 0.0 | 0.9 | 0.01 | 2.26 | 0.01 | 91 | 1014.3 |
| 20260506224520 | 53 | 60 | 2.6 | 6.1 | 0.02 | 2.56 | 0.01 | 91 | 1014.0 |
| 20260506223034 | 54 | 53 | 1.7 | 2.6 | 0.02 | 2.62 | 0.01 | 90 | 1014.0 |
| 20260506221528 | 54 | 50 | 1.7 | 4.3 | 0.03 | 2.62 | 0.01 | 90 | 1014.0 |
| 20260506220028 | 54 | 231 | 1.7 | 9.6 | 0.04 | 2.61 | 0.00 | 90 | 1014.1 |
| 20260506214531 | 54 | 215 | 1.7 | 6.1 | 0.05 | 2.60 | 2.60 | 91 | 1013.9 |
| 20260506213021 | 54 | 209 | 0.0 | 1.7 | 0.06 | 2.60 | 2.60 | 92 | 1013.9 |
| 20260506211506 | 54 | 62 | 0.0 | 3.5 | 0.07 | 2.59 | 2.59 | 92 | 1014.0 |
| 20260506210007 | 55 | 58 | 0.0 | 3.5 | 0.07 | 2.57 | 2.57 | 91 | 1013.8 |
| 20260506204514 | 55 | 205 | 1.7 | 3.5 | 0.05 | 2.55 | 2.55 | 91 | 1013.6 |
| 20260506203020 | 55 | 233 | 1.7 | 2.6 | 0.05 | 2.54 | 2.54 | 91 | 1013.5 |
| 20260506201506 | 56 | 219 | 1.7 | 3.5 | 0.03 | 2.52 | 2.52 | 90 | 1013.4 |
| 20260506200004 | 56 | 19 | 0.0 | 3.5 | 0.01 | 2.50 | 2.50 | 91 | 1013.1 |
| 20260506194507 | 57 | 243 | 0.0 | 2.6 | 0.01 | 2.50 | 2.50 | 93 | 1012.9 |
| 20260506193015 | 57 | 196 | 0.0 | 1.7 | 0.01 | 2.49 | 2.49 | 93 | 1012.8 |
| 20260506191520 | 57 | 205 | 0.0 | 1.7 | 0.01 | 2.61 | 2.49 | 93 | 1012.3 |
| 20260506190008 | 57 | 58 | 0.0 | 4.3 | 0.01 | 2.70 | 2.49 | 93 | 1012.1 |
| 20260506184507 | 57 | 55 | 3.5 | 5.2 | 0.02 | 3.12 | 2.49 | 92 | 1011.9 |
| 20260506183021 | 57 | 334 | 0.0 | 1.7 | 0.03 | 3.13 | 2.48 | 92 | 1011.9 |
| 20260506181517 | 57 | 58 | 1.7 | 3.5 | 0.04 | 3.13 | 2.48 | 92 | 1011.6 |
| 20260506180022 | 58 | 49 | 2.6 | 4.3 | 0.04 | 3.13 | 2.48 | 92 | 1011.6 |
| 20260506174504 | 58 | 199 | 1.7 | 4.3 | 0.07 | 3.12 | 2.47 | 92 | 1011.6 |
| 20260506173008 | 58 | 220 | 0.0 | 2.6 | 0.08 | 3.10 | 2.45 | 92 | 1011.5 |
| 20260506171528 | 58 | 236 | 0.0 | 1.7 | 0.23 | 3.09 | 2.44 | 93 | 1011.4 |
| 20260506170017 | 58 | 66 | 2.6 | 3.5 | 0.41 | 3.09 | 2.44 | 92 | 1011.2 |
| 20260506164523 | 58 | 56 | 1.7 | 1.7 | 0.43 | 3.05 | 2.40 | 92 | 1011.3 |
| 20260506163008 | 58 | 358 | 0.0 | 2.6 | 0.41 | 3.03 | 2.36 | 92 | 1011.3 |
| 20260506161514 | 58 | 12 | 0.9 | 1.7 | 0.29 | 2.91 | 2.21 | 90 | 1011.2 |
| 20260506160014 | 59 | 4 | 0.0 | 1.7 | 0.11 | 2.76 | 2.03 | 90 | 1011.2 |
| 20260506154524 | 59 | 13 | 0.0 | 1.7 | 0.05 | 2.70 | 1.97 | 89 | 1010.8 |
| 20260506153026 | 59 | 290 | 2.6 | 4.3 | 0.05 | 2.69 | 1.96 | 88 | 1010.9 |
| 20260506151528 | 60 | 310 | 0.9 | 2.6 | 0.01 | 2.65 | 1.92 | 85 | 1010.9 |
| 20260506150016 | 60 | 33 | 0.9 | 4.3 | 0.26 | 2.65 | 1.92 | 85 | 1011.0 |
| 20260506144529 | 59 | 337 | 2.6 | 4.3 | 0.26 | 2.66 | 1.92 | 86 | 1011.1 |
| 20260506143030 | 58 | 309 | 3.5 | 5.2 | 0.25 | 2.65 | 1.91 | 87 | 1011.2 |
| 20260506141526 | 57 | 307 | 3.5 | 9.6 | 0.25 | 2.66 | 1.91 | 86 | 1011.3 |
| 20260506140029 | 60 | 310 | 6.1 | 14.8 | 0.00 | 2.48 | 1.66 | 79 | 1011.3 |
| 20260506134516 | 67 | 317 | 6.1 | 12.2 | 0.00 | 2.48 | 1.66 | 67 | 1011.1 |
| 20260506133021 | 68 | 185 | 3.5 | 9.6 | 0.00 | 2.48 | 1.66 | 67 | 1010.6 |
| 20260506131533 | 68 | 196 | 2.6 | 13.9 | 0.00 | 2.48 | 1.66 | 68 | 1010.4 |
| 20260506130024 | 67 | 236 | 4.3 | 16.5 | 0.00 | 2.48 | 1.66 | 72 | 1010.8 |
| 20260506124528 | 67 | 312 | 4.3 | 11.3 | 0.00 | 2.63 | 1.66 | 70 | 1010.9 |
| 20260506123017 | 68 | 264 | 3.5 | 6.1 | 0.00 | 2.73 | 1.66 | 69 | 1010.9 |
| 20260506121520 | 67 | 155 | 3.5 | 9.6 | 0.00 | 2.81 | 1.66 | 70 | 1010.8 |
| 20260506120015 | 66 | 211 | 1.7 | 5.2 | 0.00 | 2.84 | 1.66 | 71 | 1011.0 |
| 20260506114520 | 66 | 203 | 2.6 | 7.0 | 0.00 | 2.94 | 1.66 | 72 | 1011.2 |
| 20260506113024 | 65 | 182 | 4.3 | 9.6 | 0.00 | 2.99 | 1.66 | 73 | 1011.3 |
| 20260506111513 | 64 | 205 | 2.6 | 8.7 | 0.00 | 3.01 | 1.66 | 76 | 1011.3 |
| 20260506110006 | 63 | 160 | 4.3 | 10.4 | 0.00 | 3.17 | 1.66 | 76 | 1011.6 |
| 20260506104508 | 63 | 206 | 4.3 | 9.6 | 0.00 | 3.20 | 1.66 | 75 | 1011.7 |
| 20260506103012 | 63 | 179 | 4.3 | 9.6 | 0.00 | 3.21 | 1.66 | 76 | 1011.9 |
| 20260506101516 | 63 | 210 | 3.5 | 7.8 | 0.00 | 3.22 | 1.66 | 76 | 1011.8 |
| 20260506100016 | 63 | 210 | 3.5 | 12.2 | 0.00 | 3.27 | 1.66 | 77 | 1011.8 |
| 20260506094506 | 63 | 236 | 6.1 | 13.0 | 0.00 | 3.27 | 1.66 | 76 | 1011.9 |
| 20260506093009 | 63 | 213 | 4.3 | 10.4 | 0.00 | 3.29 | 1.66 | 77 | 1011.8 |
| 20260506091515 | 62 | 178 | 1.7 | 9.6 | 0.01 | 3.29 | 1.66 | 82 | 1011.8 |
| 20260506090021 | 61 | 209 | 2.6 | 11.3 | 0.01 | 3.29 | 1.66 | 83 | 1011.9 |
| 20260506084518 | 61 | 223 | 4.3 | 9.6 | 0.01 | 3.29 | 1.66 | 84 | 1011.6 |
| 20260506083004 | 60 | 200 | 2.6 | 6.1 | 0.01 | 3.29 | 1.66 | 84 | 1011.5 |
| 20260506081510 | 60 | 178 | 6.1 | 13.0 | 0.00 | 3.28 | 1.65 | 83 | 1011.4 |
| 20260506073020 | 60 | 133 | 3.5 | 8.7 | 0.00 | 3.29 | 1.65 | 84 | 1011.3 |
| 20260506071520 | 60 | 168 | 1.7 | 9.6 | 0.05 | 3.29 | 1.65 | 85 | 1011.3 |
| 20260506061524 | 59 | 221 | 3.5 | 7.8 | 0.01 | 3.35 | 1.60 | 86 | 1011.1 |